User: anonymous   Login
Location: ???????
(55.8860°N, 38.0932°E)
Time: 23:04:18
(UTC+00:00)
Language:

ATLAS 5 CENTAUR R/B - Orbit

View from above orbital plane
View from above orbital plane
View from above satellite
View from above satellite

Ground track
Ground track

The orbit data is extracted from the following two-line orbital elements,

1 31702U 07027B   24170.60528395  .00006018  00000-0  51953-3 0  9992
2 31702  63.3293 288.8269 0522319  32.6908 330.5373 14.29540319  5731
Epoch (UTC): 18 June 2024 14:31:36
Eccentricity: 0.0522319
inclination: 63.3293°
perigee height: 418 km
apogee height: 1168 km
right ascension of ascending node: 288.8269°
argument of perigee: 32.6908°
revolutions per day: 14.29540319
mean anomaly at epoch: 330.5373°
orbit number at epoch: 573

The dashed part of the orbit path shows where the satellite is in the earth's shadow,  

DLR